Weather History for Billings, MT

Change the Weather History Date:

Sunday, October 7, 2012

  Actual Average Record
Temperature  
Mean Temperature 49 °F 51 °F  
Max Temperature 61 °F 63 °F 89 °F (1980)
Min Temperature 37 °F 40 °F 18 °F (1985)
Degree Days  
Heating Degree Days 16 14  
Month to date heating degree days 127 89  
Since 1 July heating degree days 192 318  
Cooling Degree Days 0 0  
Month to date cooling degree days 3 0  
Year to date cooling degree days 958 633  
Moisture  
Dew Point 24 °F    
Average Humidity 36    
Maximum Humidity 54    
Minimum Humidity 17    
Precipitation  
Precipitation 0.00 in 0.04 in 1.23 in (1993)
Month to date precipitation 0.41 0.32  
Year to date precipitation 5.49 11.67  
Snow  
Snow 0.00 in 0.10 in 5.40 in (1993)
Month to date snowfall 3.3 0.8  
Since 1 July snowfall 3.3 1.9  
Since 1 September snowfall 3.3 1.9  
Snow Depth 0.00 in    
Sea Level Pressure  
Sea Level Pressure 30.04 in    
Wind  
Wind Speed 16 mph (WSW)    
Max Wind Speed 24 mph    
Max Gust Speed 29 mph    
Visibility 10 miles    
Events      
T = Trace of Precipitation, MM = Missing Value Source: NWS Daily Summary

Daily Weather History Graph

Daily Weather History Graph

Search for Another Location

Airport:

Trip Planner

Search our weather history database for the weather conditions in past years. The results will help you decide how hot, cold, wet, or windy it might be!

Date:

Astronomy

Oct. 07, 2012 Rise Set
Actual Time 7:20 AM MDT 6:41 PM MDT
Civil Twilight 6:51 AM MDT 7:11 PM MDT
Nautical Twilight 6:16 AM MDT 7:46 PM MDT
Astronomical Twilight 5:41 AM MDT 8:20 PM MDT
Moon 11:44 PM MDT (10/7) 2:12 PM MDT (10/7)
Length of Visible Light 12h 20m
Length of Day
11h 20m
Waning Gibbous, 55% of the Moon is Illuminated
Oct 7
Waning Gibbous
Oct 8
Last Quarter
Oct 15
New
Oct 21
First Quarter
Oct 29
Full

Hourly Weather History & Observations

Time (MDT) Temp. Windchill Dew Point Humidity Pressure Visibility Wind Dir Wind Speed Gust Speed Precip Events Conditions
12:53 AM 41.0 °F 33.5 °F 23.0 °F 49% 30.16 in 10.0 mi WSW 13.8 mph - N/A   Overcast
1:53 AM 39.9 °F 31.8 °F 21.9 °F 49% 30.20 in 10.0 mi WSW 15.0 mph - N/A   Mostly Cloudy
2:53 AM 39.0 °F 31.0 °F 21.9 °F 50% 30.19 in 10.0 mi WSW 13.8 mph - N/A   Mostly Cloudy
3:53 AM 39.0 °F 30.3 °F 21.9 °F 50% 30.17 in 10.0 mi WSW 16.1 mph - N/A   Scattered Clouds
4:53 AM 37.9 °F 27.9 °F 21.0 °F 51% 30.15 in 10.0 mi WSW 19.6 mph - N/A   Partly Cloudy
5:53 AM 37.9 °F 28.5 °F 21.0 °F 51% 30.14 in 10.0 mi WSW 17.3 mph - N/A   Partly Cloudy
6:53 AM 37.0 °F 27.0 °F 21.0 °F 52% 30.14 in 10.0 mi WSW 18.4 mph - N/A   Partly Cloudy
7:53 AM 37.0 °F 26.7 °F 21.9 °F 54% 30.13 in 10.0 mi WSW 19.6 mph - N/A   Clear
8:53 AM 39.0 °F 28.8 °F 23.0 °F 53% 30.13 in 10.0 mi SW 21.9 mph - N/A   Clear
9:53 AM 43.0 °F 35.1 °F 23.0 °F 45% 30.11 in 10.0 mi WSW 17.3 mph - N/A   Clear
10:53 AM 48.0 °F - 24.1 °F 39% 30.08 in 10.0 mi SW 18.4 mph 26.5 mph N/A   Clear
11:53 AM 52.0 °F - 25.0 °F 35% 30.05 in 10.0 mi WSW 19.6 mph 24.2 mph N/A   Clear
12:53 PM 54.0 °F - 25.0 °F 33% 30.02 in 10.0 mi SW 15.0 mph 24.2 mph N/A   Clear
1:53 PM 55.9 °F - 25.0 °F 30% 29.99 in 10.0 mi SW 13.8 mph - N/A   Clear
2:53 PM 57.9 °F - 25.0 °F 28% 29.95 in 10.0 mi WSW 17.3 mph 24.2 mph N/A   Clear
3:53 PM 59.0 °F - 25.0 °F 27% 29.94 in 10.0 mi SW 15.0 mph 23.0 mph N/A   Clear
4:53 PM 61.0 °F - 25.0 °F 25% 29.91 in 10.0 mi SW 10.4 mph - N/A   Clear
5:53 PM 59.0 °F - 26.1 °F 28% 29.91 in 10.0 mi WSW 10.4 mph - N/A   Partly Cloudy
6:53 PM 57.9 °F - 27.0 °F 31% 29.91 in 10.0 mi West 9.2 mph - N/A   Partly Cloudy
7:53 PM 55.9 °F - 26.1 °F 32% 29.93 in 10.0 mi WSW 12.7 mph - N/A   Clear
8:53 PM 54.0 °F - 24.1 °F 31% 29.94 in 10.0 mi WSW 15.0 mph - N/A   Clear
9:53 PM 53.1 °F - 24.1 °F 32% 29.94 in 10.0 mi WSW 15.0 mph - N/A   Clear
10:53 PM 51.1 °F - 23.0 °F 33% 29.92 in 10.0 mi SW 18.4 mph - N/A   Clear
11:53 PM 50.0 °F - 21.9 °F 33% 29.91 in 10.0 mi WSW 21.9 mph - N/A   Clear